Location: Bauerbach
(50.4985°N, 10.3912°E)
Time: 08:30:21
(UTC+00:00)

Cosmos 921 Rocket - Pass Details

Date: 13 January 2026
Orbit: 564 x 620 km, 75.8° (Epoch: 16 February)

Event Time Altitude Azimuth Distance (km) Brightness Sun altitude
Rises 06:10:35 0° 221° (SW) 2,838 6.3 -9.8°
Reaches altitude 10° 06:12:57 10° 229° (SW) 1,931 5.3 -9.5°
Maximum altitude 06:16:58 38° 298° (WNW) 907 3.4 -8.9°
Drops below altitude 10° 06:20:57 10° 8° (N) 1,911 5.4 -8.3°
Sets 06:23:17 0° 16° (NNE) 2,806 6.3 -8.0°
